Location: Little Maitland River
(43.8022°N, 81.1549°W)
Time: 00:57:10
(UTC+00:00)

Cosmos 372 Rocket - Pass Details

Date: 09 December 2025
Orbit: 734 x 761 km, 74.1° (Epoch: 19 January)

Event Time Altitude Azimuth Distance (km) Brightness Sun altitude
Exits shadow 10:32:02 57° 237° (WSW) 863 3.9 -23.5°
Drops below altitude 10° 10:36:39 10° 176° (S) 2,230 6.6 -22.7°
Sets 10:39:01 0° 172° (S) 3,149 7.4 -22.3°
